Weather History for KEBG - October, 2011

Change the Weather History Date:

Thursday, October 20, 2011

  Actual Average (KMFE) Record (KMFE)
Temperature  
Mean Temperature 70 °F 76 °F  
Max Temperature 89 °F 87 °F 96 °F (1962)
Min Temperature 50 °F 66 °F 48 °F (1966)
Degree Days  
Heating Degree Days 0 0  
Month to date heating degree days 0  
Since 1 July heating degree days 0  
Cooling Degree Days 4 12  
Month to date cooling degree days 269  
Year to date cooling degree days 4068  
Growing Degree Days 20 (Base 50)    
Moisture  
Dew Point 45 °F    
Average Humidity 42    
Maximum Humidity 64    
Minimum Humidity 21    
Precipitation  
Precipitation 0.00 in 0.06 in 2.12 in (2002)
Month to date precipitation 1.44  
Year to date precipitation 19.48  
Sea Level Pressure  
Sea Level Pressure 30.07 in    
Wind  
Wind Speed 5 mph (South)    
Max Wind Speed 17 mph    
Max Gust Speed 22 mph    
Visibility 9 miles    
Events      
T = Trace of Precipitation, MM = Missing Value Source: NWS Daily Summary

Daily Weather History Graph

Daily Weather History Graph

Search for Another Location

Airport or City:

Trip Planner

Search our weather history database for the weather conditions in past years. The results will help you decide how hot, cold, wet, or windy it might be!

Date:

Astronomy

Oct. 20, 2011 Rise Set
Actual Time 7:34 AM CDT 6:59 PM CDT
Civil Twilight 7:10 AM CDT 7:23 PM CDT
Nautical Twilight 6:43 AM CDT 7:50 PM CDT
Astronomical Twilight 6:16 AM CDT 8:17 PM CDT
Moon 1:00 AM CDT (10/20) 2:33 PM CDT (10/20)
Length of Visible Light 12h 12m
Length of Day
11h 25m
Last Quarter, 44% of the Moon is Illuminated
Oct 20
Last Quarter
Oct 26
New
Nov 2
First Quarter
Nov 10
Full
Nov 18
Last Quarter

Hourly Weather History & Observations

Time (CDT) Temp. Dew Point Humidity Pressure Visibility Wind Dir Wind Speed Gust Speed Precip Events Conditions
12:15 AM 59.7 °F 35.1 °F 40% 30.13 in 10.0 mi Calm Calm - N/A   Clear
12:35 AM 58.6 °F 36.0 °F 43% 30.13 in 10.0 mi Calm Calm - N/A   Clear
12:55 AM 58.3 °F 36.5 °F 44% 30.13 in 10.0 mi Calm Calm - N/A   Clear
1:15 AM 58.1 °F 37.2 °F 46% 30.12 in 10.0 mi SSW 3.5 mph - N/A   Clear
1:35 AM 56.7 °F 37.9 °F 50% 30.12 in 10.0 mi Calm Calm - N/A   Clear
1:55 AM 56.5 °F 38.5 °F 51% 30.12 in 10.0 mi Calm Calm - N/A   Clear
2:35 AM 55.4 °F 38.7 °F 53% 30.11 in 10.0 mi Calm Calm - N/A   Scattered Clouds
2:55 AM 55.0 °F 38.3 °F 53% 30.10 in 10.0 mi Calm Calm - N/A   Clear
3:15 AM 54.5 °F 37.0 °F 52% 30.10 in 10.0 mi Calm Calm - N/A   Clear
3:55 AM - - N/A% 30.09 in 10.0 mi Calm Calm - N/A   Clear
4:55 AM - - N/A% 30.08 in 10.0 mi Calm Calm - N/A   Clear
5:35 AM 51.6 °F 37.2 °F 58% 30.08 in 10.0 mi Calm Calm - N/A   Clear
5:55 AM 50.5 °F 37.8 °F 62% 30.08 in 10.0 mi Calm Calm - N/A   Clear
6:15 AM 51.4 °F 38.5 °F 61% 30.08 in 10.0 mi Calm Calm - N/A   Clear
6:35 AM 51.6 °F 37.9 °F 60% 30.09 in 10.0 mi Calm Calm - N/A   Clear
6:55 AM 51.3 °F 38.7 °F 62% 30.09 in 10.0 mi Calm Calm - N/A   Clear
7:15 AM 51.4 °F 39.4 °F 63% 30.09 in 10.0 mi Calm Calm - N/A   Clear
7:35 AM 51.8 °F 38.1 °F 60% 30.10 in 10.0 mi Calm Calm - N/A   Clear
7:55 AM 51.8 °F 38.7 °F 61% 30.10 in 10.0 mi Calm Calm - N/A   Clear
8:15 AM 52.3 °F 39.4 °F 61% 30.11 in 10.0 mi Calm Calm - N/A   Clear
8:35 AM 54.5 °F 41.4 °F 61% 30.11 in 10.0 mi Calm Calm - N/A   Clear
8:55 AM 58.1 °F 42.8 °F 57% 30.12 in 10.0 mi Calm Calm - N/A   Clear
9:35 AM 68.0 °F 48.4 °F 49% 30.14 in 10.0 mi South 4.6 mph - N/A   Clear
9:55 AM 70.5 °F 49.3 °F 47% 30.14 in 10.0 mi South 4.6 mph - N/A   Clear
10:15 AM 74.3 °F 50.0 °F 42% 30.14 in 10.0 mi South 8.1 mph - N/A   Clear
10:35 AM 76.6 °F 50.2 °F 39% 30.14 in 10.0 mi SSW 11.5 mph - N/A   Clear
10:55 AM 78.6 °F 49.5 °F 36% 30.14 in 10.0 mi SSE 12.7 mph - N/A   Clear
11:15 AM 80.4 °F 49.1 °F 33% 30.13 in 10.0 mi SSE 12.7 mph - N/A   Clear
11:55 AM 82.8 °F 46.8 °F 28% 30.12 in 10.0 mi South 11.5 mph 19.6 mph N/A   Clear
12:15 PM 83.7 °F 45.5 °F 26% 30.11 in 10.0 mi South 10.4 mph 20.7 mph N/A   Clear
12:35 PM 84.6 °F 44.4 °F 24% 30.10 in 10.0 mi SSE 9.2 mph 19.6 mph N/A   Clear
12:55 PM 85.3 °F 44.4 °F 24% 30.10 in 10.0 mi South 16.1 mph 21.9 mph N/A   Clear
1:35 PM 86.9 °F 43.5 °F 22% 30.07 in 7.0 mi SSW 15.0 mph 19.6 mph N/A   Clear
1:55 PM 86.9 °F 43.7 °F 22% 30.06 in 7.0 mi SSE 10.4 mph 19.6 mph N/A   Clear
2:15 PM 87.4 °F 43.0 °F 21% 30.04 in 5.0 mi SSW 11.5 mph 20.7 mph N/A   Haze
2:35 PM 87.6 °F 43.3 °F 21% 30.03 in 7.0 mi South 15.0 mph 19.6 mph N/A   Clear
2:55 PM 88.2 °F 43.7 °F 21% 30.02 in 10.0 mi SSW 15.0 mph 19.6 mph N/A   Clear
3:15 PM 88.9 °F 44.6 °F 21% 30.02 in 7.0 mi South 12.7 mph 18.4 mph N/A   Clear
3:35 PM 88.7 °F 45.1 °F 22% 30.01 in 5.0 mi South 9.2 mph 18.4 mph N/A   Haze
4:15 PM 89.2 °F 44.2 °F 21% 30.00 in 7.0 mi South 13.8 mph 18.4 mph N/A   Clear
4:35 PM 88.7 °F 44.2 °F 21% 29.99 in 7.0 mi South 13.8 mph 19.6 mph N/A   Clear
4:55 PM 88.5 °F 44.4 °F 22% 29.99 in 10.0 mi South 11.5 mph - N/A   Clear
5:15 PM 88.3 °F 45.1 °F 22% 29.99 in 7.0 mi SSE 12.7 mph 17.3 mph N/A   Clear
5:35 PM 87.4 °F 46.2 °F 24% 29.98 in 7.0 mi SSE 10.4 mph 13.8 mph N/A   Clear
5:55 PM 86.5 °F 47.7 °F 26% 29.99 in 5.0 mi SSE 16.1 mph 19.6 mph N/A   Haze
6:15 PM 85.1 °F 48.9 °F 28% 29.99 in 7.0 mi SSE 17.3 mph - N/A   Clear
6:35 PM 84.0 °F 49.5 °F 30% 29.99 in 7.0 mi SSE 15.0 mph - N/A   Clear
7:15 PM 81.0 °F 51.3 °F 36% 30.00 in 7.0 mi South 12.7 mph - N/A   Clear
7:35 PM 79.9 °F 52.2 °F 38% 30.01 in 7.0 mi South 10.4 mph - N/A   Clear
8:15 PM 78.1 °F 53.2 °F 42% 30.02 in 7.0 mi South 11.5 mph - N/A   Clear
8:35 PM 77.2 °F 53.6 °F 44% 30.03 in 7.0 mi South 12.7 mph - N/A   Clear
8:55 PM 76.5 °F 54.0 °F 46% 30.03 in 10.0 mi SSE 10.4 mph - N/A   Clear
9:35 PM 74.8 °F 54.1 °F 48% 30.04 in 10.0 mi SSE 9.2 mph - N/A   Clear
9:55 PM 73.9 °F 54.5 °F 51% 30.04 in 10.0 mi SSE 9.2 mph - N/A   Clear
10:15 PM 73.6 °F 54.9 °F 52% 30.05 in 10.0 mi South 9.2 mph - N/A   Clear
10:35 PM 73.4 °F 55.4 °F 53% 30.05 in 10.0 mi SSE 8.1 mph - N/A   Clear
10:55 PM 72.5 °F 55.8 °F 56% 30.05 in 10.0 mi SSE 8.1 mph - N/A   Clear
11:15 PM 71.8 °F 55.9 °F 57% 30.06 in 10.0 mi SSE 5.8 mph - N/A   Clear
11:35 PM 70.3 °F 55.9 °F 60% 30.06 in 10.0 mi SE 5.8 mph - N/A   Clear
11:55 PM 68.4 °F 55.8 °F 64% 30.05 in 10.0 mi SSE 6.9 mph - N/A   Clear